COSMOS 2251 DEB

Satellite information

Favourite Embed

Satellite Type and Status

DEBRISIN ORBIT

Key statistics

Satellite COSMOS 2251 DEB at a glance.

Uptime

11869

Days in orbit

Revolutions

≈ 13.8

Per day

Orbit

LEO

Low Earth Orbit

Inclination

74.1

Latest

Satellite identification and parameters

Extended collection of information and parameters for COSMOS 2251 DEB.

Object identification

Identified? True

Debris? True

Object name: COSMOS 2251 DEB

International designator: 1993-036GN

Object number (NORAD): 34003

Object ID (CCSDS): 34003

Country: COMMONWEALTH OF INDEPENDENT STATES (CIS)

Current information (Y/N): Y

RCS size: SMALL

Orbital parameters

Period: 104.035 minutes

Inclination: 74.078 deg

SMA: 7327.351 km

Apoapsis: 1150.158 km

Periapsis: 748.273 km

RAAN: 286.0079 deg

Eccentricy: 0.0274236

Argument of periapsis: 38.1447 deg

Mean anomaly: 323.8739 deg

Mean motion: 13.84147254 rev/day

Mean motion (dot): 0.00004774 rev/day2

B* drag term: 0.0032157 1/REarth

Two-line elements (TLE)

Creation date: Dec. 12, 2025, 10:14 a.m.

Reference frame: TEME

Reference center: EARTH

Epoch: Dec. 12, 2025, 5:26 a.m. UTC

TLE line 0: 0 COSMOS 2251 DEB

TLE line 1: 1 34003U 93036GN 25346.22656571 .00004774 00000-0 32157-2 0 9997

TLE line 2: 2 34003 74.0780 286.0079 0274236 38.1447 323.8739 13.84147254844180

Live tracking on map

Real-time ground track for satellite COSMOS 2251 DEB.

In-orbit conjunctions

A list of the most updated potential collisions computed for object COSMOS 2251 DEB.

Target Orbit TCA Probability of collision Miss distance Type
METEOR 1-12 LEO 2025-08-22 07:20:26 0.0001285538 314.0 (m) PAYLOAD
FENGYUN 1C DEB SSO 2024-11-13 12:36:40 0.0003567552 586.0 (m) DEBRIS

Associated space launch

Military communications satellite. Destroyed in a collision with Iridium 33.

COSMOS 2251 DEB was lifted into orbit during the mission ‘Kosmos-3M | Strela-2M 51’, on board a Kosmos-3M space rocket.

The launch took place on June 16, 1993, 4:17 a.m. from 132/1 (132L).

For more information about the launch, click the button.

Launch to space Kosmos-3M | Strela-2M 51
Kosmos-3M | Strela-2M 51

Agency: N/A

Status: Launch Successful

Launch date: June 16, 1993, 4:17 a.m. UTC

Rocket: Kosmos-3M

Launch pad: 132/1 (132L)

Location: Plesetsk Cosmodrome, Russian Federation

...

Latest news about this satellite

There are no fresh news available about this satellite. Check back as we update our databases every day.


Newsletter sign-up

Weekly statistics, charts and insights to help you stay on top of the space industry.